Погода в Житикаре

Казахстан     52°11′02″N   61°11′23″E
темп.,
°C
ветер,
м/с
пор.,
м/с
влажн.,
%
обл.,
%
осадки,
мм/ч
давл.,
гПа
погр.,
м
1 марта, пн
пн100:00−9с4595100 0.9 1006132
03:00−12ссз349673 0.1 100853
06:00−14ссз349677 0.1 101151
09:00−15ссз339685 0.1 101364
12:00−13ссз239379 0.1 1015210
15:00−12сз228995 0.0 1016269
18:00−13сз129395 0.0 101720
21:00−14вюв019684 0.1 101720
2 марта, вт
вт200:00−14ююз229685 0.2 101822
03:00−15юз239584 0.1 101722
06:00−15зюз359685 0.1 1017110
09:00−16зюз499480 0.1 1016223
12:00−16зюз699153 0.1 1016283
15:00−16зюз6109018 0.0 1015372
18:00−15зюз7138837 0.0 1014377
21:00−15зюз7158889 0.0 1014355
3 марта, ср
ср300:00−13зюз8158894 0.0 1013494
03:00−11юз71488100 0.0 1011605
06:00−8юз81591100 0.1 1009628
09:00−6юз81592100 0.3 1007693
12:00−3юз91487100 0.6 1007925
15:00−2юз91393100 0.3 1006950
18:00−2юз81390100 0.4 1005812
21:00−2юз71490100 0.1 1004592
4 марта, чт
чт400:00−2юз61293100 0.2 1004546
03:00−2юз51195100 0.3 1002436
06:00−3зюз51096100 0.6 1002410
09:00−4зсз489699 0.6 1003256
12:00−8зсз598784 0.6 1005272
15:00−6зсз59840 0.0 1007454
18:00−8з59870 0.0 1009280
21:00−10зюз612880 0.0 1011243
5 марта, пт
пт500:00−11зюз714885 0.0 1013275
03:00−11зюз917880 0.0 1011447
06:00−9юз10188749 0.0 1010616
09:00−6юз112085100 0.0 1009756
12:00−3зюз122084100 0.0 1009936
15:00−2зюз121983100 0.0 10101096
18:00−1зюз101686100 0.1 10121056
21:00−2зюз91588100 0.1 1013902